Weather History for Farmington, NM

Change the Weather History Date:

Saturday, July 14, 2012

  Actual Average Record
Temperature  
Mean Temperature 77 °F -  
Max Temperature 90 °F 91 °F 104 °F (2003)
Min Temperature 64 °F 60 °F 51 °F (1992)
Cooling Degree Days 12    
Growing Degree Days 27 (Base 50)    
Moisture  
Dew Point 54 °F    
Average Humidity 49    
Maximum Humidity 80    
Minimum Humidity 15    
Precipitation  
Precipitation 0.02 in - - ()
Sea Level Pressure  
Sea Level Pressure 30.00 in    
Wind  
Wind Speed 5 mph (West)    
Max Wind Speed 13 mph    
Max Gust Speed -    
Visibility 10 miles    
Events      
Averages and records for this station are not official NWS values.
T = Trace of Precipitation, MM = Missing Value Source: NWS Daily Summary

Daily Weather History Graph

Daily Weather History Graph

Search for Another Location

Airport:

Trip Planner

Search our weather history database for the weather conditions in past years. The results will help you decide how hot, cold, wet, or windy it might be!

Date:

Astronomy

Jul. 14, 2012 Rise Set
Actual Time 6:05 AM MDT 8:31 PM MDT
Civil Twilight 5:35 AM MDT 9:01 PM MDT
Nautical Twilight 4:58 AM MDT 9:38 PM MDT
Astronomical Twilight 4:17 AM MDT 10:19 PM MDT
Moon 2:21 AM MDT (7/14) 4:59 PM MDT (7/14)
Length of Visible Light 15h 26m
Length of Day
14h 26m
Waning Crescent, 18% of the Moon is Illuminated
Jul 14
Waning Crescent
Jul 18
New
Jul 26
First Quarter
Aug 1
Full
Aug 9
Last Quarter

Hourly Weather History & Observations

Time (MDT) Temp. Heat Index Dew Point Humidity Pressure Visibility Wind Dir Wind Speed Gust Speed Precip Events Conditions
12:53 AM 69.1 °F - 55.9 °F 63% 29.98 in 10.0 mi NNE 5.8 mph - N/A   Partly Cloudy
1:53 AM 68.0 °F - 55.0 °F 63% 29.98 in 10.0 mi Calm Calm - N/A   Scattered Clouds
3:53 AM 64.9 °F - 57.9 °F 78% 30.00 in 10.0 mi Calm Calm - N/A   Clear
4:53 AM 64.0 °F - 57.9 °F 80% 30.00 in 10.0 mi Calm Calm - N/A   Clear
5:53 AM 64.9 °F - 57.0 °F 75% 30.04 in 10.0 mi ENE 4.6 mph - N/A   Clear
6:53 AM 66.0 °F - 55.9 °F 70% 30.06 in 10.0 mi ENE 4.6 mph - N/A   Clear
7:53 AM 68.0 °F - 55.9 °F 65% 30.07 in 10.0 mi ESE 6.9 mph - N/A   Clear
8:53 AM 71.1 °F - 55.0 °F 57% 30.07 in 10.0 mi ESE 9.2 mph - N/A   Clear
9:53 AM 73.9 °F - 54.0 °F 50% 30.06 in 10.0 mi East 3.5 mph - N/A   Clear
10:53 AM 79.0 °F - 52.0 °F 39% 30.04 in 10.0 mi Calm Calm - N/A   Clear
11:53 AM 82.9 °F - 50.0 °F 32% 30.03 in 10.0 mi West 5.8 mph - N/A   Partly Cloudy
12:53 PM 82.9 °F - 48.0 °F 29% 30.01 in 10.0 mi WSW 3.5 mph - N/A   Partly Cloudy
1:53 PM 89.1 °F - 48.9 °F 25% 29.95 in 10.0 mi WNW 8.1 mph - N/A   Clear
2:53 PM 89.1 °F - 48.0 °F 24% 29.93 in 10.0 mi SW 5.8 mph - N/A   Partly Cloudy
3:53 PM 81.0 °F 80.5 °F 54.0 °F 39% 29.95 in 10.0 mi South 3.5 mph - 0.02 in   Scattered Clouds
4:53 PM 82.0 °F 81.2 °F 53.1 °F 37% 29.94 in 10.0 mi WNW 9.2 mph - N/A   Clear
5:53 PM 82.0 °F - 52.0 °F 35% 29.95 in 10.0 mi West 12.7 mph - N/A   Partly Cloudy
6:53 PM 79.0 °F - 55.9 °F 45% 29.94 in 10.0 mi WNW 6.9 mph - N/A   Scattered Clouds
7:53 PM 77.0 °F - 55.0 °F 47% 29.95 in 10.0 mi West 12.7 mph - 0.00 in   Scattered Clouds
8:00 PM 77.0 °F - 55.4 °F 47% 30.14 in 10.0 mi West 12.7 mph - N/A   Scattered Clouds
8:53 PM 72.0 °F - 57.0 °F 59% 29.99 in 10.0 mi WSW 4.6 mph - N/A   Scattered Clouds
9:53 PM 70.0 °F - 57.0 °F 63% 30.00 in 10.0 mi West 4.6 mph - N/A   Mostly Cloudy
10:53 PM 70.0 °F - 55.9 °F 61% 29.98 in 10.0 mi West 8.1 mph - N/A   Scattered Clouds
11:53 PM 68.0 °F - 55.9 °F 65% 29.97 in 10.0 mi WSW 5.8 mph - N/A   Clear